Time,TemperatureF,DewpointF,PressureIn,WindDirection,WindDirectionDegrees,WindSpeedMPH,WindSpeedGustMPH,Humidity,HourlyPrecipIn,Conditions,Clouds,dailyrainin,SolarRadiationWatts/m^2,SoftwareType,DateUTC
2013-11-08 00:00:00,41.2,30.7,29.95,West,263,4.0,10.0,66,0.00,,,0.00,0.00,VWS V14.01,2013-11-08 05:00:00,
2013-11-08 00:01:00,35.0,32.4,29.94,West,269,0.0,0.0,90,0.00,,,0.00,0.00,VWS V14.01,2013-11-08 05:01:00,
2013-11-08 00:06:00,35.2,32.6,29.94,West,269,0.0,0.0,90,0.00,,,0.00,0.00,VWS V14.01,2013-11-08 05:06:00,
2013-11-08 00:11:00,35.2,32.6,29.94,West,269,0.0,0.0,90,0.00,,,0.00,0.00,VWS V14.01,2013-11-08 05:11:00,
2013-11-08 00:15:00,41.1,31.0,29.96,WSW,252,9.0,11.0,67,0.00,,,0.00,0.00,VWS V14.01,2013-11-08 05:15:00,
2013-11-08 00:16:00,35.6,33.0,29.95,West,269,3.0,4.0,90,0.00,,,0.00,0.00,VWS V14.01,2013-11-08 05:16:00,
2013-11-08 00:21:00,36.5,33.8,29.95,West,270,5.0,7.0,90,0.00,,,0.00,0.00,VWS V14.01,2013-11-08 05:21:00,
2013-11-08 00:26:00,37.5,33.7,29.95,West,264,4.0,7.0,86,0.00,,,0.00,0.00,VWS V14.01,2013-11-08 05:26:00,
2013-11-08 00:30:00,41.1,31.4,29.97,NW,304,4.0,12.0,68,0.00,,,0.00,0.00,VWS V14.01,2013-11-08 05:30:00,
2013-11-08 00:31:00,38.6,32.3,29.95,WSW,244,4.0,6.0,78,0.00,,,0.00,0.00,VWS V14.01,2013-11-08 05:31:00,
2013-11-08 00:36:00,39.5,31.9,29.95,West,262,5.0,7.0,74,0.00,,,0.00,0.00,VWS V14.01,2013-11-08 05:36:00,
2013-11-08 00:41:00,40.1,32.2,29.95,West,274,2.0,7.0,73,0.00,,,0.00,0.00,VWS V14.01,2013-11-08 05:41:00,
2013-11-08 00:45:00,40.8,31.8,29.97,SW,231,6.0,10.0,70,0.00,,,0.00,0.00,VWS V14.01,2013-11-08 05:45:00,
2013-11-08 00:46:00,40.3,31.3,29.95,West,269,5.0,8.0,70,0.00,,,0.00,0.00,VWS V14.01,2013-11-08 05:46:00,
2013-11-08 00:51:00,40.8,31.1,29.95,WNW,296,4.0,10.0,68,0.00,,,0.00,0.00,VWS V14.01,2013-11-08 05:51:00,
2013-11-08 00:56:00,41.1,31.0,29.95,WSW,252,2.0,10.0,67,0.00,,,0.00,0.00,VWS V14.01,2013-11-08 05:56:00,
2013-11-08 01:00:00,40.6,32.0,29.97,West,266,4.0,11.0,71,0.00,,,0.00,0.00,VWS V14.01,2013-11-08 06:00:00,
2013-11-08 01:01:00,41.2,30.7,29.95,West,280,3.0,7.0,66,0.00,,,0.00,0.00,VWS V14.01,2013-11-08 06:01:00,
2013-11-08 01:06:00,41.2,30.7,29.95,West,276,3.0,9.0,66,0.00,,,0.00,0.00,VWS V14.01,2013-11-08 06:06:00,
2013-11-08 01:11:00,41.2,31.1,29.95,West,279,6.0,9.0,67,0.00,,,0.00,0.00,VWS V14.01,2013-11-08 06:11:00,
2013-11-08 01:15:00,40.2,32.9,29.98,WSW,246,6.0,12.0,75,0.00,,,0.00,0.00,VWS V14.01,2013-11-08 06:15:00,
2013-11-08 01:16:00,41.1,31.4,29.96,WNW,288,5.0,9.0,68,0.00,,,0.00,0.00,VWS V14.01,2013-11-08 06:16:00,
2013-11-08 01:21:00,41.1,31.4,29.96,SW,229,6.0,11.0,68,0.00,,,0.00,0.00,VWS V14.01,2013-11-08 06:21:00,
2013-11-08 01:26:00,41.1,31.4,29.96,West,269,5.0,12.0,68,0.00,,,0.00,0.00,VWS V14.01,2013-11-08 06:26:00,
2013-11-08 01:30:00,37.8,32.8,29.98,West,271,6.0,16.0,82,0.03,,,0.03,0.00,VWS V14.01,2013-11-08 06:30:00,
2013-11-08 01:31:00,41.1,31.4,29.97,West,271,5.0,10.0,68,0.00,,,0.00,0.00,VWS V14.01,2013-11-08 06:31:00,
2013-11-08 01:36:00,40.9,31.5,29.97,West,268,2.0,10.0,69,0.00,,,0.00,0.00,VWS V14.01,2013-11-08 06:36:00,
2013-11-08 01:41:00,40.8,31.4,29.97,NW,316,1.0,10.0,69,0.00,,,0.00,0.00,VWS V14.01,2013-11-08 06:41:00,
2013-11-08 01:45:00,40.8,31.8,29.97,WNW,284,7.0,9.0,70,0.00,,,0.00,0.00,VWS V14.01,2013-11-08 06:45:00,
2013-11-08 01:50:00,40.8,31.8,29.97,West,277,7.0,11.0,70,0.00,,,0.00,0.00,VWS V14.01,2013-11-08 06:50:00,
2013-11-08 01:55:00,40.8,31.8,29.97,WSW,255,8.0,11.0,70,0.00,,,0.00,0.00,VWS V14.01,2013-11-08 06:55:00,
2013-11-08 02:00:00,40.6,32.3,29.97,West,263,2.0,6.0,72,0.00,,,0.00,0.00,VWS V14.01,2013-11-08 07:00:00,
2013-11-08 02:05:00,40.5,32.5,29.97,WNW,292,4.0,9.0,73,0.00,,,0.00,0.00,VWS V14.01,2013-11-08 07:05:00,
2013-11-08 02:10:00,40.3,32.7,29.97,West,271,4.0,9.0,74,0.00,,,0.00,0.00,VWS V14.01,2013-11-08 07:10:00,
2013-11-08 02:15:00,40.2,33.2,29.98,West,269,6.0,8.0,76,0.00,,,0.00,0.00,VWS V14.01,2013-11-08 07:15:00,
2013-11-08 02:20:00,39.6,33.6,29.98,SW,234,10.0,16.0,79,0.01,,,0.01,0.00,VWS V14.01,2013-11-08 07:20:00,
2013-11-08 02:25:00,38.5,33.2,29.98,WNW,292,0.0,16.0,81,0.02,,,0.02,0.00,VWS V14.01,2013-11-08 07:25:00,
2013-11-08 02:30:00,37.6,32.9,29.98,WNW,285,4.0,8.0,83,0.03,,,0.03,0.00,VWS V14.01,2013-11-08 07:30:00,
2013-11-08 02:35:00,37.2,33.1,29.98,West,265,0.0,8.0,85,0.03,,,0.03,0.00,VWS V14.01,2013-11-08 07:35:00,
2013-11-08 02:40:00,37.0,33.2,29.98,West,265,0.0,8.0,86,0.03,,,0.03,0.00,VWS V14.01,2013-11-08 07:40:00,
2013-11-08 02:45:00,37.0,33.5,29.98,West,263,4.0,7.0,87,0.03,,,0.03,0.00,VWS V14.01,2013-11-08 07:45:00,
2013-11-08 02:50:00,37.2,34.0,29.98,West,268,5.0,8.0,88,0.03,,,0.03,0.00,VWS V14.01,2013-11-08 07:50:00,
2013-11-08 02:55:00,37.2,34.0,29.98,West,277,3.0,9.0,88,0.03,,,0.03,0.00,VWS V14.01,2013-11-08 07:55:00,
2013-11-08 03:00:00,37.2,34.0,29.98,West,265,9.0,9.0,88,0.03,,,0.03,0.00,VWS V14.01,2013-11-08 08:00:00,
2013-11-08 03:05:00,37.2,34.0,29.98,WNW,298,8.0,12.0,88,0.03,,,0.03,0.00,VWS V14.01,2013-11-08 08:05:00,
2013-11-08 03:10:00,37.2,34.0,29.98,West,278,9.0,12.0,88,0.03,,,0.03,0.00,VWS V14.01,2013-11-08 08:10:00,
2013-11-08 03:15:00,37.2,34.0,29.98,West,273,1.0,7.0,88,0.03,,,0.03,0.00,VWS V14.01,2013-11-08 08:15:00,
2013-11-08 03:20:00,37.2,34.0,29.98,WNW,284,2.0,7.0,88,0.03,,,0.03,0.00,VWS V14.01,2013-11-08 08:20:00,
2013-11-08 03:25:00,37.0,33.5,29.98,West,275,4.0,7.0,87,0.03,,,0.03,0.00,VWS V14.01,2013-11-08 08:25:00,
2013-11-08 03:30:00,36.9,33.4,29.98,West,275,2.0,4.0,87,0.00,,,0.03,0.00,VWS V14.01,2013-11-08 08:30:00,
2013-11-08 03:35:00,36.9,33.4,29.98,West,275,0.0,4.0,87,0.00,,,0.03,0.00,VWS V14.01,2013-11-08 08:35:00,
2013-11-08 03:40:00,36.8,33.3,29.98,West,275,0.0,4.0,87,0.00,,,0.03,0.00,VWS V14.01,2013-11-08 08:40:00,
2013-11-08 03:45:00,36.8,33.3,29.98,West,275,0.0,0.0,87,0.00,,,0.03,0.00,VWS V14.01,2013-11-08 08:45:00,
2013-11-08 03:50:00,36.6,33.1,29.98,West,275,0.0,0.0,87,0.00,,,0.03,0.00,VWS V14.01,2013-11-08 08:50:00,
2013-11-08 03:55:00,36.6,33.4,29.98,West,275,0.0,0.0,88,0.00,,,0.03,0.00,VWS V14.01,2013-11-08 08:55:00,
2013-11-08 04:00:00,36.3,33.1,29.98,West,275,0.0,0.0,88,0.00,,,0.03,0.00,VWS V14.01,2013-11-08 09:00:00,
2013-11-08 04:05:00,36.2,33.3,29.98,West,275,0.0,0.0,89,0.00,,,0.03,0.00,VWS V14.01,2013-11-08 09:05:00,
2013-11-08 04:10:00,36.0,33.1,29.98,West,275,0.0,0.0,89,0.00,,,0.03,0.00,VWS V14.01,2013-11-08 09:10:00,
2013-11-08 04:15:00,35.9,33.0,29.98,West,275,0.0,0.0,89,0.00,,,0.03,0.00,VWS V14.01,2013-11-08 09:15:00,
2013-11-08 04:20:00,35.8,32.9,29.98,West,275,0.0,0.0,89,0.00,,,0.03,0.00,VWS V14.01,2013-11-08 09:20:00,
2013-11-08 04:25:00,35.6,32.7,29.98,West,275,0.0,0.0,89,0.00,,,0.03,0.00,VWS V14.01,2013-11-08 09:25:00,
2013-11-08 04:30:00,35.5,32.6,29.99,West,275,0.0,0.0,89,0.00,,,0.03,0.00,VWS V14.01,2013-11-08 09:30:00,
2013-11-08 04:35:00,35.2,32.3,29.99,West,275,0.0,0.0,89,0.00,,,0.03,0.00,VWS V14.01,2013-11-08 09:35:00,
2013-11-08 04:40:00,35.0,32.1,29.99,West,275,0.0,2.0,89,0.00,,,0.03,0.00,VWS V14.01,2013-11-08 09:40:00,
2013-11-08 04:45:00,34.9,32.3,30.00,West,275,2.0,2.0,90,0.00,,,0.03,0.00,VWS V14.01,2013-11-08 09:45:00,
2013-11-08 04:50:00,34.7,32.1,30.00,West,275,1.0,6.0,90,0.00,,,0.03,0.00,VWS V14.01,2013-11-08 09:50:00,
2013-11-08 04:55:00,34.6,32.0,30.00,West,275,3.0,6.0,90,0.00,,,0.03,0.00,VWS V14.01,2013-11-08 09:55:00,
2013-11-08 05:00:00,34.6,31.7,30.00,West,273,0.0,4.0,89,0.00,,,0.03,0.00,VWS V14.01,2013-11-08 10:00:00,
2013-11-08 05:05:00,34.4,31.2,30.00,West,273,2.0,5.0,88,0.00,,,0.03,0.00,VWS V14.01,2013-11-08 10:05:00,
2013-11-08 05:10:00,34.3,31.1,30.00,West,273,0.0,5.0,88,0.00,,,0.03,0.00,VWS V14.01,2013-11-08 10:10:00,
2013-11-08 05:15:00,34.3,30.8,30.00,West,273,0.0,0.0,87,0.00,,,0.03,0.00,VWS V14.01,2013-11-08 10:15:00,
2013-11-08 05:20:00,34.1,30.6,30.00,West,273,0.0,2.0,87,0.00,,,0.03,0.00,VWS V14.01,2013-11-08 10:20:00,
2013-11-08 05:25:00,34.0,30.3,30.00,West,273,2.0,4.0,86,0.00,,,0.03,0.00,VWS V14.01,2013-11-08 10:25:00,
2013-11-08 05:30:00,34.0,30.0,30.01,West,273,0.0,0.0,85,0.00,,,0.03,0.00,VWS V14.01,2013-11-08 10:30:00,
2013-11-08 05:35:00,33.8,29.8,30.01,West,273,0.0,0.0,85,0.00,,,0.03,0.00,VWS V14.01,2013-11-08 10:35:00,
2013-11-08 05:40:00,33.8,29.8,30.01,West,273,0.0,1.0,85,0.00,,,0.03,0.00,VWS V14.01,2013-11-08 10:40:00,
2013-11-08 05:45:00,33.7,29.7,30.01,West,273,0.0,0.0,85,0.00,,,0.03,0.00,VWS V14.01,2013-11-08 10:45:00,
2013-11-08 05:50:00,33.7,29.7,30.01,West,273,0.0,0.0,85,0.00,,,0.03,0.00,VWS V14.01,2013-11-08 10:50:00,
2013-11-08 05:55:00,33.5,29.5,30.01,West,273,0.0,0.0,85,0.00,,,0.03,0.00,VWS V14.01,2013-11-08 10:55:00,
2013-11-08 06:00:00,33.5,29.5,30.01,West,273,0.0,0.0,85,0.00,,,0.03,0.00,VWS V14.01,2013-11-08 11:00:00,
2013-11-08 06:05:00,33.4,29.7,30.01,West,273,0.0,0.0,86,0.00,,,0.03,0.00,VWS V14.01,2013-11-08 11:05:00,
2013-11-08 06:10:00,33.2,29.5,30.01,West,273,0.0,0.0,86,0.00,,,0.03,0.00,VWS V14.01,2013-11-08 11:10:00,
2013-11-08 06:15:00,33.1,29.4,30.02,West,273,0.0,0.0,86,0.00,,,0.03,0.00,VWS V14.01,2013-11-08 11:15:00,
2013-11-08 06:20:00,32.8,29.4,30.02,West,273,0.0,0.0,87,0.00,,,0.03,0.00,VWS V14.01,2013-11-08 11:20:00,
2013-11-08 06:25:00,32.7,29.3,30.02,West,273,0.0,0.0,87,0.00,,,0.03,0.00,VWS V14.01,2013-11-08 11:25:00,
2013-11-08 06:30:00,32.4,29.2,30.02,West,273,0.0,0.0,88,0.00,,,0.03,0.00,VWS V14.01,2013-11-08 11:30:00,
2013-11-08 06:35:00,32.2,29.0,30.02,West,273,0.0,0.0,88,0.00,,,0.03,0.00,VWS V14.01,2013-11-08 11:35:00,
2013-11-08 06:40:00,31.9,29.0,30.02,West,273,0.0,0.0,89,0.00,,,0.03,0.00,VWS V14.01,2013-11-08 11:40:00,
2013-11-08 06:45:00,31.8,28.9,30.03,West,273,0.0,0.0,89,0.00,,,0.03,7.00,VWS V14.01,2013-11-08 11:45:00,
2013-11-08 06:50:00,31.6,28.7,30.03,West,273,0.0,0.0,89,0.00,,,0.03,9.00,VWS V14.01,2013-11-08 11:50:00,
2013-11-08 06:55:00,31.6,29.0,30.03,West,273,0.0,0.0,90,0.00,,,0.03,11.00,VWS V14.01,2013-11-08 11:55:00,
2013-11-08 07:00:00,31.5,28.9,30.03,West,273,0.0,0.0,90,0.00,,,0.03,12.00,VWS V14.01,2013-11-08 12:00:00,
2013-11-08 07:05:00,31.5,28.9,30.03,West,273,0.0,0.0,90,0.00,,,0.03,14.00,VWS V14.01,2013-11-08 12:05:00,
2013-11-08 07:10:00,31.3,28.7,30.03,West,273,0.0,0.0,90,0.00,,,0.03,14.00,VWS V14.01,2013-11-08 12:10:00,
2013-11-08 07:15:00,31.3,28.7,30.04,West,273,0.0,0.0,90,0.00,,,0.03,16.00,VWS V14.01,2013-11-08 12:15:00,
2013-11-08 07:20:00,31.2,28.9,30.04,West,273,0.0,0.0,91,0.00,,,0.03,18.00,VWS V14.01,2013-11-08 12:20:00,
2013-11-08 07:25:00,31.2,28.9,30.04,West,273,0.0,1.0,91,0.00,,,0.03,18.00,VWS V14.01,2013-11-08 12:25:00,
2013-11-08 07:30:00,31.2,28.9,30.05,West,273,0.0,0.0,91,0.00,,,0.03,19.00,VWS V14.01,2013-11-08 12:30:00,
2013-11-08 07:35:00,31.5,29.2,30.05,West,273,0.0,2.0,91,0.00,,,0.03,21.00,VWS V14.01,2013-11-08 12:35:00,
2013-11-08 07:40:00,31.6,29.3,30.05,West,273,0.0,2.0,91,0.00,,,0.03,21.00,VWS V14.01,2013-11-08 12:40:00,
2013-11-08 07:45:00,31.9,29.6,30.05,West,271,5.0,5.0,91,0.00,,,0.03,23.00,VWS V14.01,2013-11-08 12:45:00,
2013-11-08 07:50:00,33.5,29.8,30.05,West,271,0.0,6.0,86,0.00,,,0.03,30.00,VWS V14.01,2013-11-08 12:50:00,
2013-11-08 07:55:00,34.7,28.2,30.05,WSW,254,3.0,6.0,77,0.00,,,0.03,127.00,VWS V14.01,2013-11-08 12:55:00,
2013-11-08 08:00:00,35.5,28.0,30.05,West,277,0.0,2.0,74,0.01,,,0.04,65.00,VWS V14.01,2013-11-08 13:00:00,
2013-11-08 08:04:00,35.8,28.0,30.05,WSW,258,6.0,6.0,73,0.01,,,0.04,93.00,VWS V14.01,2013-11-08 13:04:00,
2013-11-08 08:09:00,36.2,27.7,30.05,West,259,4.0,7.0,71,0.01,,,0.04,76.00,VWS V14.01,2013-11-08 13:09:00,
2013-11-08 08:14:00,36.3,27.8,30.06,WNW,286,5.0,5.0,71,0.01,,,0.04,44.00,VWS V14.01,2013-11-08 13:14:00,
2013-11-08 08:15:00,39.5,29.5,30.07,West,278,5.0,19.0,67,0.00,,,0.04,114.00,VWS V14.01,2013-11-08 13:15:00,
2013-11-08 08:19:00,36.6,27.8,30.06,WSW,244,2.0,6.0,70,0.01,,,0.04,37.00,VWS V14.01,2013-11-08 13:19:00,
2013-11-08 08:24:00,36.9,28.0,30.06,WSW,256,0.0,6.0,70,0.01,,,0.04,35.00,VWS V14.01,2013-11-08 13:24:00,
2013-11-08 08:29:00,37.0,27.8,30.06,West,269,0.0,0.0,69,0.01,,,0.04,127.00,VWS V14.01,2013-11-08 13:29:00,
2013-11-08 08:30:00,39.9,29.9,30.06,WNW,292,5.0,10.0,67,0.00,,,0.04,137.00,VWS V14.01,2013-11-08 13:30:00,
2013-11-08 08:34:00,37.6,28.4,30.06,West,269,3.0,7.0,69,0.01,,,0.04,123.00,VWS V14.01,2013-11-08 13:34:00,
2013-11-08 08:39:00,38.0,28.8,30.06,West,268,4.0,8.0,69,0.01,,,0.04,49.00,VWS V14.01,2013-11-08 13:39:00,
2013-11-08 08:44:00,38.0,28.0,30.06,WSW,254,0.0,3.0,67,0.01,,,0.04,37.00,VWS V14.01,2013-11-08 13:44:00,
2013-11-08 08:45:00,40.9,30.4,30.05,West,268,8.0,15.0,66,0.00,,,0.04,443.00,VWS V14.01,2013-11-08 13:45:00,
2013-11-08 08:49:00,38.2,27.9,30.06,West,267,4.0,8.0,66,0.01,,,0.04,67.00,VWS V14.01,2013-11-08 13:49:00,
2013-11-08 08:54:00,38.5,28.1,30.06,WSW,246,4.0,9.0,66,0.01,,,0.04,130.00,VWS V14.01,2013-11-08 13:54:00,
2013-11-08 08:59:00,38.6,28.6,30.07,West,269,6.0,6.0,67,0.00,,,0.04,123.00,VWS V14.01,2013-11-08 13:59:00,
2013-11-08 09:00:00,41.6,29.6,30.05,WNW,300,0.0,15.0,62,0.00,,,0.04,499.00,VWS V14.01,2013-11-08 14:00:00,
2013-11-08 09:04:00,38.9,28.9,30.07,WSW,246,5.0,8.0,67,0.00,,,0.04,97.00,VWS V14.01,2013-11-08 14:04:00,
2013-11-08 09:09:00,39.2,29.2,30.07,West,271,0.0,19.0,67,0.00,,,0.04,141.00,VWS V14.01,2013-11-08 14:09:00,
2013-11-08 09:14:00,39.5,29.5,30.07,West,273,7.0,7.0,67,0.00,,,0.04,114.00,VWS V14.01,2013-11-08 14:14:00,
2013-11-08 09:15:00,41.8,29.0,30.06,West,261,9.0,19.0,60,0.00,,,0.04,497.00,VWS V14.01,2013-11-08 14:15:00,
2013-11-08 09:19:00,39.6,29.6,30.07,West,273,4.0,9.0,67,0.00,,,0.04,81.00,VWS V14.01,2013-11-08 14:19:00,
2013-11-08 09:24:00,39.8,29.8,30.07,West,266,5.0,10.0,67,0.00,,,0.04,190.00,VWS V14.01,2013-11-08 14:24:00,
2013-11-08 09:29:00,39.9,29.9,30.06,WNW,282,9.0,9.0,67,0.00,,,0.04,137.00,VWS V14.01,2013-11-08 14:29:00,
2013-11-08 09:30:00,43.3,30.0,30.06,WSW,246,0.0,15.0,59,0.00,,,0.04,221.00,VWS V14.01,2013-11-08 14:30:00,
2013-11-08 09:34:00,40.2,30.1,30.06,WSW,246,4.0,13.0,67,0.00,,,0.04,200.00,VWS V14.01,2013-11-08 14:34:00,
2013-11-08 09:39:00,40.6,30.1,30.06,WSW,247,7.0,13.0,66,0.00,,,0.04,396.00,VWS V14.01,2013-11-08 14:39:00,
2013-11-08 09:44:00,40.9,29.7,30.05,West,276,12.0,12.0,64,0.00,,,0.04,443.00,VWS V14.01,2013-11-08 14:44:00,
2013-11-08 09:45:00,42.9,30.0,30.06,West,261,11.0,14.0,60,0.00,,,0.04,258.00,VWS V14.01,2013-11-08 14:45:00,
2013-11-08 09:49:00,40.9,29.7,30.05,West,269,14.0,14.0,64,0.00,,,0.04,454.00,VWS V14.01,2013-11-08 14:49:00,
2013-11-08 09:54:00,41.3,29.7,30.05,WSW,257,1.0,15.0,63,0.00,,,0.04,489.00,VWS V14.01,2013-11-08 14:54:00,
2013-11-08 09:59:00,41.8,29.8,30.05,WNW,300,0.0,0.0,62,0.00,,,0.04,499.00,VWS V14.01,2013-11-08 14:59:00,
2013-11-08 10:00:00,43.5,29.7,30.06,WNW,294,7.0,21.0,58,0.00,,,0.04,232.00,VWS V14.01,2013-11-08 15:00:00,
2013-11-08 10:04:00,42.1,30.0,30.05,West,275,1.0,10.0,62,0.00,,,0.04,501.00,VWS V14.01,2013-11-08 15:04:00,
2013-11-08 10:09:00,41.9,29.0,30.05,WNW,282,11.0,19.0,60,0.00,,,0.04,550.00,VWS V14.01,2013-11-08 15:09:00,
2013-11-08 10:14:00,41.8,29.0,30.06,West,261,9.0,19.0,60,0.00,,,0.04,497.00,VWS V14.01,2013-11-08 15:14:00,
2013-11-08 10:15:00,44.2,29.5,30.06,West,267,6.0,19.0,56,0.00,,,0.04,262.00,VWS V14.01,2013-11-08 15:15:00,
2013-11-08 10:19:00,42.3,29.8,30.06,West,277,8.0,15.0,61,0.00,,,0.04,517.00,VWS V14.01,2013-11-08 15:19:00,
2013-11-08 10:24:00,43.2,29.9,30.06,WSW,242,4.0,15.0,59,0.00,,,0.04,606.00,VWS V14.01,2013-11-08 15:24:00,
2013-11-08 10:29:00,43.3,30.0,30.06,WSW,246,0.0,15.0,59,0.00,,,0.04,221.00,VWS V14.01,2013-11-08 15:29:00,
2013-11-08 10:30:00,44.3,28.3,30.05,WSW,249,0.0,21.0,53,0.00,,,0.04,132.00,VWS V14.01,2013-11-08 15:30:00,
2013-11-08 10:34:00,43.1,29.3,30.06,West,259,10.0,14.0,58,0.00,,,0.04,202.00,VWS V14.01,2013-11-08 15:34:00,
2013-11-08 10:39:00,42.9,30.4,30.06,WSW,255,7.0,14.0,61,0.00,,,0.04,214.00,VWS V14.01,2013-11-08 15:39:00,
2013-11-08 10:44:00,42.9,30.0,30.06,West,261,11.0,14.0,60,0.00,,,0.04,258.00,VWS V14.01,2013-11-08 15:44:00,
2013-11-08 10:45:00,43.8,27.8,30.05,WSW,241,10.0,14.0,53,0.00,,,0.04,165.00,VWS V14.01,2013-11-08 15:45:00,
2013-11-08 10:49:00,43.1,29.8,30.06,West,278,12.0,21.0,59,0.00,,,0.04,229.00,VWS V14.01,2013-11-08 15:49:00,
2013-11-08 10:54:00,43.1,28.9,30.06,NNE,19,0.0,21.0,57,0.00,,,0.04,274.00,VWS V14.01,2013-11-08 15:54:00,
2013-11-08 10:59:00,43.5,29.7,30.06,WNW,294,7.0,21.0,58,0.00,,,0.04,232.00,VWS V14.01,2013-11-08 15:59:00,
2013-11-08 11:00:00,44.8,27.3,30.05,SW,228,8.0,16.0,50,0.00,,,0.04,137.00,VWS V14.01,2013-11-08 16:00:00,
2013-11-08 11:04:00,43.5,29.7,30.06,WNW,298,5.0,16.0,58,0.00,,,0.04,151.00,VWS V14.01,2013-11-08 16:04:00,
2013-11-08 11:09:00,43.6,29.4,30.06,SW,235,7.0,16.0,57,0.00,,,0.04,206.00,VWS V14.01,2013-11-08 16:09:00,
2013-11-08 11:14:00,44.2,29.5,30.06,West,267,6.0,19.0,56,0.00,,,0.04,262.00,VWS V14.01,2013-11-08 16:14:00,
2013-11-08 11:15:00,44.3,26.4,30.05,SE,126,0.0,18.0,49,0.00,,,0.04,141.00,VWS V14.01,2013-11-08 16:15:00,
2013-11-08 11:19:00,44.5,28.9,30.06,SSW,207,8.0,11.0,54,0.00,,,0.04,318.00,VWS V14.01,2013-11-08 16:19:00,
2013-11-08 11:24:00,44.3,28.3,30.06,West,275,3.0,21.0,53,0.00,,,0.04,202.00,VWS V14.01,2013-11-08 16:24:00,
2013-11-08 11:29:00,44.3,28.3,30.05,WSW,249,4.0,21.0,53,0.00,,,0.04,132.00,VWS V14.01,2013-11-08 16:29:00,
2013-11-08 11:30:00,44.6,27.6,30.05,WSW,246,0.0,13.0,51,0.00,,,0.04,640.00,VWS V14.01,2013-11-08 16:30:00,
2013-11-08 11:34:00,44.1,27.1,30.05,WNW,299,0.0,14.0,51,0.00,,,0.04,100.00,VWS V14.01,2013-11-08 16:34:00,
2013-11-08 11:39:00,43.9,27.4,30.05,WSW,240,4.0,14.0,52,0.00,,,0.04,113.00,VWS V14.01,2013-11-08 16:39:00,
2013-11-08 11:44:00,43.8,27.8,30.05,WSW,249,8.0,14.0,53,0.00,,,0.04,165.00,VWS V14.01,2013-11-08 16:44:00,
2013-11-08 11:45:00,44.6,26.6,30.05,NW,309,7.0,20.0,49,0.00,,,0.04,58.00,VWS V14.01,2013-11-08 16:45:00,
2013-11-08 11:49:00,43.9,27.0,30.05,WSW,246,11.0,15.0,51,0.00,,,0.04,200.00,VWS V14.01,2013-11-08 16:49:00,
2013-11-08 11:54:00,44.3,27.3,30.05,SW,236,6.0,15.0,51,0.00,,,0.04,216.00,VWS V14.01,2013-11-08 16:54:00,
2013-11-08 11:59:00,44.8,27.3,30.05,WNW,291,5.0,16.0,50,0.00,,,0.04,137.00,VWS V14.01,2013-11-08 16:59:00,
2013-11-08 12:00:00,44.3,27.8,30.05,SW,231,9.0,15.0,52,0.00,,,0.04,156.00,VWS V14.01,2013-11-08 17:00:00,
2013-11-08 12:04:00,44.6,27.6,30.05,West,277,3.0,13.0,51,0.00,,,0.04,160.00,VWS V14.01,2013-11-08 17:04:00,
2013-11-08 12:09:00,44.5,27.0,30.05,South,191,0.0,18.0,50,0.00,,,0.04,156.00,VWS V14.01,2013-11-08 17:09:00,
2013-11-08 12:14:00,44.3,26.4,30.05,SSW,205,0.0,18.0,49,0.00,,,0.04,141.00,VWS V14.01,2013-11-08 17:14:00,
2013-11-08 12:15:00,44.9,27.4,30.06,WSW,250,6.0,15.0,50,0.00,,,0.04,186.00,VWS V14.01,2013-11-08 17:15:00,
2013-11-08 12:19:00,44.2,27.2,30.05,SW,225,7.0,11.0,51,0.00,,,0.04,169.00,VWS V14.01,2013-11-08 17:19:00,
2013-11-08 12:24:00,44.2,27.2,30.05,West,271,0.0,13.0,51,0.00,,,0.04,144.00,VWS V14.01,2013-11-08 17:24:00,
2013-11-08 12:29:00,44.5,28.0,30.05,WSW,246,4.0,13.0,52,0.00,,,0.04,640.00,VWS V14.01,2013-11-08 17:29:00,
2013-11-08 12:30:00,45.2,25.1,30.07,West,279,11.0,22.0,45,0.00,,,0.04,552.00,VWS V14.01,2013-11-08 17:30:00,
2013-11-08 12:34:00,45.7,28.6,30.05,SW,225,4.0,10.0,51,0.00,,,0.04,601.00,VWS V14.01,2013-11-08 17:34:00,
2013-11-08 12:39:00,45.2,27.7,30.05,SW,236,13.0,18.0,50,0.00,,,0.04,199.00,VWS V14.01,2013-11-08 17:39:00,
2013-11-08 12:44:00,44.6,26.6,30.05,WSW,257,7.0,20.0,49,0.00,,,0.04,58.00,VWS V14.01,2013-11-08 17:44:00,
2013-11-08 12:45:00,46.1,24.3,30.06,NNW,338,2.0,31.0,42,0.00,,,0.04,232.00,VWS V14.01,2013-11-08 17:45:00,
2013-11-08 12:49:00,44.5,27.0,30.05,SW,230,5.0,12.0,50,0.00,,,0.04,47.00,VWS V14.01,2013-11-08 17:49:00,
2013-11-08 12:54:00,44.5,27.5,30.05,West,280,7.0,15.0,51,0.00,,,0.04,56.00,VWS V14.01,2013-11-08 17:54:00,
2013-11-08 12:59:00,44.3,27.8,30.05,WSW,238,7.0,15.0,52,0.00,,,0.04,146.00,VWS V14.01,2013-11-08 17:59:00,
2013-11-08 13:00:00,45.1,26.1,30.07,West,275,14.0,19.0,47,0.00,,,0.04,90.00,VWS V14.01,2013-11-08 18:00:00,
2013-11-08 13:04:00,44.2,27.7,30.05,NNW,332,4.0,15.0,52,0.00,,,0.04,248.00,VWS V14.01,2013-11-08 18:04:00,
2013-11-08 13:09:00,44.6,27.6,30.05,North,360,6.0,15.0,51,0.00,,,0.04,213.00,VWS V14.01,2013-11-08 18:09:00,
2013-11-08 13:14:00,44.9,27.4,30.06,South,187,5.0,15.0,50,0.00,,,0.04,186.00,VWS V14.01,2013-11-08 18:14:00,
2013-11-08 13:15:00,45.2,25.7,30.07,West,259,5.0,14.0,46,0.00,,,0.04,121.00,VWS V14.01,2013-11-08 18:15:00,
2013-11-08 13:19:00,44.9,25.4,30.06,WSW,241,6.0,16.0,46,0.00,,,0.04,179.00,VWS V14.01,2013-11-08 18:19:00,
2013-11-08 13:24:00,45.1,25.6,30.06,West,275,0.0,16.0,46,0.00,,,0.04,244.00,VWS V14.01,2013-11-08 18:24:00,
2013-11-08 13:29:00,45.2,25.1,30.07,SW,227,6.0,22.0,45,0.00,,,0.04,552.00,VWS V14.01,2013-11-08 18:29:00,
2013-11-08 13:30:00,46.4,25.7,30.07,WNW,284,2.0,20.0,44,0.00,,,0.04,399.00,VWS V14.01,2013-11-08 18:30:00,
2013-11-08 13:34:00,45.4,24.8,30.07,WSW,248,8.0,22.0,44,0.00,,,0.04,84.00,VWS V14.01,2013-11-08 18:34:00,
2013-11-08 13:39:00,45.8,25.1,30.07,South,180,7.0,22.0,44,0.00,,,0.04,601.00,VWS V14.01,2013-11-08 18:39:00,
2013-11-08 13:44:00,46.1,24.3,30.06,NW,321,1.0,31.0,42,0.00,,,0.04,232.00,VWS V14.01,2013-11-08 18:44:00,
2013-11-08 13:45:00,47.1,24.6,30.07,WNW,300,5.0,15.0,41,0.00,,,0.04,70.00,VWS V14.01,2013-11-08 18:45:00,
2013-11-08 13:49:00,46.1,24.9,30.06,WSW,254,7.0,19.0,43,0.00,,,0.04,76.00,VWS V14.01,2013-11-08 18:49:00,
2013-11-08 13:54:00,45.7,25.0,30.06,SSW,204,3.0,19.0,44,0.00,,,0.04,53.00,VWS V14.01,2013-11-08 18:54:00,
2013-11-08 13:59:00,45.2,26.2,30.07,SSW,211,10.0,19.0,47,0.00,,,0.04,90.00,VWS V14.01,2013-11-08 18:59:00,
2013-11-08 14:00:00,45.7,25.0,30.08,West,267,10.0,18.0,44,0.00,,,0.04,40.00,VWS V14.01,2013-11-08 19:00:00,
2013-11-08 14:04:00,44.9,25.9,30.07,SW,219,4.0,14.0,47,0.00,,,0.04,156.00,VWS V14.01,2013-11-08 19:04:00,
2013-11-08 14:09:00,45.1,26.1,30.07,West,281,10.0,14.0,47,0.00,,,0.04,149.00,VWS V14.01,2013-11-08 19:09:00,
2013-11-08 14:14:00,45.2,26.2,30.07,West,277,9.0,14.0,47,0.00,,,0.04,121.00,VWS V14.01,2013-11-08 19:14:00,
2013-11-08 14:15:00,45.1,26.1,30.09,WSW,248,7.0,14.0,47,0.00,,,0.04,42.00,VWS V14.01,2013-11-08 19:15:00,
2013-11-08 14:19:00,45.7,26.1,30.07,West,259,13.0,13.0,46,0.00,,,0.04,387.00,VWS V14.01,2013-11-08 19:19:00,
2013-11-08 14:24:00,46.1,26.0,30.07,NNW,338,7.0,20.0,45,0.00,,,0.04,380.00,VWS V14.01,2013-11-08 19:24:00,
2013-11-08 14:29:00,46.4,25.7,30.07,WNW,284,2.0,20.0,44,0.00,,,0.04,399.00,VWS V14.01,2013-11-08 19:29:00,
2013-11-08 14:30:00,44.8,25.8,30.10,SW,234,7.0,20.0,47,0.00,,,0.04,127.00,VWS V14.01,2013-11-08 19:30:00,
2013-11-08 14:34:00,46.7,25.4,30.07,WSW,246,6.0,12.0,43,0.00,,,0.04,427.00,VWS V14.01,2013-11-08 19:34:00,
2013-11-08 14:39:00,47.0,24.5,30.07,WNW,291,6.0,15.0,41,0.00,,,0.04,464.00,VWS V14.01,2013-11-08 19:39:00,
2013-11-08 14:44:00,47.1,24.6,30.07,NW,326,5.0,15.0,41,0.00,,,0.04,77.00,VWS V14.01,2013-11-08 19:44:00,
2013-11-08 14:45:00,45.1,25.6,30.10,SW,234,8.0,13.0,46,0.00,,,0.04,200.00,VWS V14.01,2013-11-08 19:45:00,
2013-11-08 14:49:00,46.8,24.9,30.07,WNW,286,9.0,12.0,42,0.00,,,0.04,54.00,VWS V14.01,2013-11-08 19:49:00,
2013-11-08 14:54:00,46.2,25.0,30.07,West,278,9.0,18.0,43,0.00,,,0.04,47.00,VWS V14.01,2013-11-08 19:54:00,
2013-11-08 14:59:00,45.8,25.1,30.08,WSW,250,10.0,18.0,44,0.00,,,0.04,40.00,VWS V14.01,2013-11-08 19:59:00,
2013-11-08 15:00:00,46.1,25.4,30.10,WSW,239,6.0,13.0,44,0.00,,,0.04,160.00,VWS V14.01,2013-11-08 20:00:00,
2013-11-08 15:04:00,45.5,25.9,30.08,West,280,7.0,14.0,46,0.00,,,0.04,35.00,VWS V14.01,2013-11-08 20:04:00,
2013-11-08 15:09:00,45.2,25.7,30.08,West,270,6.0,14.0,46,0.00,,,0.04,37.00,VWS V14.01,2013-11-08 20:09:00,
2013-11-08 15:14:00,45.1,26.1,30.09,WSW,238,5.0,14.0,47,0.00,,,0.04,44.00,VWS V14.01,2013-11-08 20:14:00,
2013-11-08 15:15:00,46.5,25.8,30.10,ENE,61,0.0,10.0,44,0.00,,,0.04,86.00,VWS V14.01,2013-11-08 20:15:00,
2013-11-08 15:19:00,44.9,25.9,30.09,WSW,249,11.0,12.0,47,0.00,,,0.04,62.00,VWS V14.01,2013-11-08 20:19:00,
2013-11-08 15:24:00,44.8,25.8,30.09,NW,325,3.0,20.0,47,0.00,,,0.04,49.00,VWS V14.01,2013-11-08 20:24:00,
2013-11-08 15:29:00,44.8,25.8,30.10,NW,308,6.0,20.0,47,0.00,,,0.04,127.00,VWS V14.01,2013-11-08 20:29:00,
2013-11-08 15:30:00,45.8,24.6,30.11,West,281,5.0,12.0,43,0.00,,,0.04,40.00,VWS V14.01,2013-11-08 20:30:00,
2013-11-08 15:34:00,44.9,25.4,30.10,WSW,242,7.0,13.0,46,0.00,,,0.04,86.00,VWS V14.01,2013-11-08 20:34:00,
2013-11-08 15:39:00,44.9,25.4,30.10,SSW,207,4.0,13.0,46,0.00,,,0.04,58.00,VWS V14.01,2013-11-08 20:39:00,
2013-11-08 15:44:00,44.9,25.4,30.10,WSW,252,7.0,13.0,46,0.00,,,0.04,142.00,VWS V14.01,2013-11-08 20:44:00,
2013-11-08 15:45:00,44.5,24.0,30.12,West,260,7.0,13.0,44,0.00,,,0.04,5.00,VWS V14.01,2013-11-08 20:45:00,
2013-11-08 15:49:00,45.4,25.9,30.10,SW,222,7.0,13.0,46,0.00,,,0.04,183.00,VWS V14.01,2013-11-08 20:49:00,
2013-11-08 15:54:00,45.8,25.1,30.10,NW,311,6.0,13.0,44,0.00,,,0.04,167.00,VWS V14.01,2013-11-08 20:54:00,
2013-11-08 15:59:00,46.1,25.4,30.10,SSW,213,0.0,13.0,44,0.00,,,0.04,160.00,VWS V14.01,2013-11-08 20:59:00,
2013-11-08 16:00:00,43.8,23.9,30.13,West,259,3.0,12.0,45,0.00,,,0.04,0.00,VWS V14.01,2013-11-08 21:00:00,
2013-11-08 16:03:00,46.2,25.5,30.10,West,266,0.0,7.0,44,0.00,,,0.04,149.00,VWS V14.01,2013-11-08 21:03:00,
2013-11-08 16:08:00,46.5,25.8,30.10,West,261,0.0,9.0,44,0.00,,,0.04,118.00,VWS V14.01,2013-11-08 21:08:00,
2013-11-08 16:13:00,46.5,25.2,30.10,ENE,63,1.0,10.0,43,0.00,,,0.04,90.00,VWS V14.01,2013-11-08 21:13:00,
2013-11-08 16:15:00,43.3,24.4,30.13,WSW,252,2.0,9.0,47,0.00,,,0.04,0.00,VWS V14.01,2013-11-08 21:15:00,
2013-11-08 16:18:00,46.4,25.1,30.10,WNW,285,0.0,12.0,43,0.00,,,0.04,88.00,VWS V14.01,2013-11-08 21:18:00,
2013-11-08 16:23:00,46.1,24.9,30.10,SW,219,5.0,12.0,43,0.00,,,0.04,62.00,VWS V14.01,2013-11-08 21:23:00,
2013-11-08 16:28:00,45.8,24.6,30.11,WSW,252,2.0,12.0,43,0.00,,,0.04,40.00,VWS V14.01,2013-11-08 21:28:00,
2013-11-08 16:30:00,42.6,23.8,30.15,WSW,248,0.0,7.0,47,0.00,,,0.04,0.00,VWS V14.01,2013-11-08 21:30:00,
2013-11-08 16:33:00,45.4,24.2,30.11,WNW,290,9.0,12.0,43,0.00,,,0.04,25.00,VWS V14.01,2013-11-08 21:33:00,
2013-11-08 16:38:00,44.9,24.3,30.11,SW,214,0.0,13.0,44,0.00,,,0.04,12.00,VWS V14.01,2013-11-08 21:38:00,
2013-11-08 16:43:00,44.5,24.0,30.12,SW,229,6.0,13.0,44,0.00,,,0.04,5.00,VWS V14.01,2013-11-08 21:43:00,
2013-11-08 16:45:00,42.5,23.2,30.15,West,271,0.0,10.0,46,0.00,,,0.04,0.00,VWS V14.01,2013-11-08 21:45:00,
2013-11-08 16:48:00,44.2,23.7,30.12,WSW,240,0.0,12.0,44,0.00,,,0.04,0.00,VWS V14.01,2013-11-08 21:48:00,
2013-11-08 16:53:00,44.1,24.1,30.12,SW,232,9.0,12.0,45,0.00,,,0.04,0.00,VWS V14.01,2013-11-08 21:53:00,
2013-11-08 16:58:00,43.8,23.9,30.13,WSW,249,5.0,12.0,45,0.00,,,0.04,0.00,VWS V14.01,2013-11-08 21:58:00,
2013-11-08 17:00:00,41.9,22.6,30.16,SW,226,0.0,8.0,46,0.00,,,0.04,0.00,VWS V14.01,2013-11-08 22:00:00,
2013-11-08 17:03:00,43.6,23.7,30.13,SW,236,4.0,9.0,45,0.00,,,0.04,0.00,VWS V14.01,2013-11-08 22:03:00,
2013-11-08 17:08:00,43.5,24.1,30.13,West,271,0.0,9.0,46,0.00,,,0.04,0.00,VWS V14.01,2013-11-08 22:08:00,
2013-11-08 17:13:00,43.3,24.4,30.13,WSW,252,0.0,9.0,47,0.00,,,0.04,0.00,VWS V14.01,2013-11-08 22:13:00,
2013-11-08 17:15:00,42.3,22.0,30.17,WNW,283,6.0,18.0,44,0.00,,,0.04,0.00,VWS V14.01,2013-11-08 22:15:00,
2013-11-08 17:18:00,43.1,24.3,30.13,WSW,251,0.0,6.0,47,0.00,,,0.04,0.00,VWS V14.01,2013-11-08 22:18:00,
2013-11-08 17:23:00,42.9,24.6,30.13,WSW,250,0.0,6.0,48,0.00,,,0.04,0.00,VWS V14.01,2013-11-08 22:23:00,
2013-11-08 17:28:00,42.6,23.8,30.15,WNW,294,0.0,7.0,47,0.00,,,0.04,0.00,VWS V14.01,2013-11-08 22:28:00,
2013-11-08 17:30:00,42.1,22.8,30.17,WSW,244,0.0,14.0,46,0.00,,,0.04,0.00,VWS V14.01,2013-11-08 22:30:00,
2013-11-08 17:33:00,42.6,23.8,30.15,West,262,0.0,7.0,47,0.00,,,0.04,0.00,VWS V14.01,2013-11-08 22:33:00,
2013-11-08 17:38:00,42.6,23.8,30.15,West,265,3.0,8.0,47,0.00,,,0.04,0.00,VWS V14.01,2013-11-08 22:38:00,
2013-11-08 17:43:00,42.5,23.2,30.15,West,278,3.0,10.0,46,0.00,,,0.04,0.00,VWS V14.01,2013-11-08 22:43:00,
2013-11-08 17:45:00,41.8,23.6,30.18,WNW,283,0.0,11.0,48,0.00,,,0.04,0.00,VWS V14.01,2013-11-08 22:45:00,
2013-11-08 17:48:00,42.5,23.2,30.15,SW,234,1.0,8.0,46,0.00,,,0.04,0.00,VWS V14.01,2013-11-08 22:48:00,
2013-11-08 17:53:00,42.3,23.0,30.15,SW,234,0.0,8.0,46,0.00,,,0.04,0.00,VWS V14.01,2013-11-08 22:53:00,
2013-11-08 17:58:00,42.1,23.3,30.16,WSW,246,0.0,8.0,47,0.00,,,0.04,0.00,VWS V14.01,2013-11-08 22:58:00,
2013-11-08 18:00:00,41.6,23.9,30.18,West,268,8.0,13.0,49,0.00,,,0.04,0.00,VWS V14.01,2013-11-08 23:00:00,
2013-11-08 18:03:00,41.8,23.1,30.16,SSW,208,7.0,8.0,47,0.00,,,0.04,0.00,VWS V14.01,2013-11-08 23:03:00,
2013-11-08 18:08:00,41.9,22.1,30.16,West,259,10.0,15.0,45,0.00,,,0.04,0.00,VWS V14.01,2013-11-08 23:08:00,
2013-11-08 18:13:00,42.2,21.9,30.16,WSW,258,0.0,18.0,44,0.00,,,0.04,0.00,VWS V14.01,2013-11-08 23:13:00,
2013-11-08 18:15:00,41.3,24.1,30.18,West,273,4.0,9.0,50,0.00,,,0.04,0.00,VWS V14.01,2013-11-08 23:15:00,
2013-11-08 18:18:00,42.3,22.0,30.17,WSW,243,4.0,14.0,44,0.00,,,0.04,0.00,VWS V14.01,2013-11-08 23:18:00,
2013-11-08 18:23:00,42.1,22.3,30.17,SW,219,6.0,14.0,45,0.00,,,0.04,0.00,VWS V14.01,2013-11-08 23:23:00,
2013-11-08 18:28:00,42.1,22.8,30.17,West,273,1.0,14.0,46,0.00,,,0.04,0.00,VWS V14.01,2013-11-08 23:28:00,
2013-11-08 18:30:00,40.9,24.6,30.19,West,267,0.0,7.0,52,0.00,,,0.04,0.00,VWS V14.01,2013-11-08 23:30:00,
2013-11-08 18:33:00,42.1,22.8,30.17,West,277,5.0,9.0,46,0.00,,,0.04,0.00,VWS V14.01,2013-11-08 23:33:00,
2013-11-08 18:38:00,41.9,23.2,30.17,West,269,0.0,11.0,47,0.00,,,0.04,0.00,VWS V14.01,2013-11-08 23:38:00,
2013-11-08 18:43:00,41.8,23.6,30.17,West,266,0.0,11.0,48,0.00,,,0.04,0.00,VWS V14.01,2013-11-08 23:43:00,
2013-11-08 18:45:00,40.6,24.4,30.19,WSW,256,5.0,9.0,52,0.00,,,0.04,0.00,VWS V14.01,2013-11-08 23:45:00,
2013-11-08 18:48:00,41.6,23.4,30.18,West,267,7.0,9.0,48,0.00,,,0.04,0.00,VWS V14.01,2013-11-08 23:48:00,
2013-11-08 18:53:00,41.6,23.4,30.18,West,262,0.0,9.0,48,0.00,,,0.04,0.00,VWS V14.01,2013-11-08 23:53:00,
2013-11-08 18:58:00,41.5,23.3,30.18,WSW,242,6.0,13.0,48,0.00,,,0.04,0.00,VWS V14.01,2013-11-08 23:58:00,
2013-11-08 19:00:00,40.3,24.5,30.20,WSW,254,5.0,8.0,53,0.00,,,0.04,0.00,VWS V14.01,2013-11-09 00:00:00,
2013-11-08 19:03:00,41.5,23.8,30.18,West,260,6.0,8.0,49,0.00,,,0.04,0.00,VWS V14.01,2013-11-09 00:03:00,
2013-11-08 19:08:00,41.5,23.8,30.18,West,262,4.0,8.0,49,0.00,,,0.04,0.00,VWS V14.01,2013-11-09 00:08:00,
2013-11-08 19:13:00,41.3,24.1,30.18,West,266,0.0,9.0,50,0.00,,,0.04,0.00,VWS V14.01,2013-11-09 00:13:00,
2013-11-08 19:15:00,40.2,24.5,30.20,WNW,286,5.0,8.0,53,0.00,,,0.04,0.00,VWS V14.01,2013-11-09 00:15:00,
2013-11-08 19:18:00,41.2,24.0,30.18,West,271,5.0,7.0,50,0.00,,,0.04,0.00,VWS V14.01,2013-11-09 00:18:00,
2013-11-08 19:23:00,41.1,24.4,30.18,WNW,286,0.0,7.0,51,0.00,,,0.04,0.00,VWS V14.01,2013-11-09 00:23:00,
2013-11-08 19:28:00,40.9,24.6,30.18,WSW,243,5.0,7.0,52,0.00,,,0.04,0.00,VWS V14.01,2013-11-09 00:28:00,
2013-11-08 19:30:00,40.1,24.8,30.20,WSW,253,3.0,8.0,54,0.00,,,0.04,0.00,VWS V14.01,2013-11-09 00:30:00,
2013-11-08 19:33:00,40.8,24.5,30.19,WNW,287,0.0,4.0,52,0.00,,,0.04,0.00,VWS V14.01,2013-11-09 00:33:00,
2013-11-08 19:38:00,40.6,24.8,30.19,WSW,244,7.0,9.0,53,0.00,,,0.04,0.00,VWS V14.01,2013-11-09 00:38:00,
2013-11-08 19:43:00,40.6,24.4,30.19,WSW,256,4.0,9.0,52,0.00,,,0.04,0.00,VWS V14.01,2013-11-09 00:43:00,
2013-11-08 19:45:00,39.9,25.1,30.20,West,276,5.0,7.0,55,0.00,,,0.04,0.00,VWS V14.01,2013-11-09 00:45:00,
2013-11-08 19:48:00,40.5,24.7,30.19,West,265,5.0,5.0,53,0.00,,,0.04,0.00,VWS V14.01,2013-11-09 00:48:00,
2013-11-08 19:53:00,40.5,24.7,30.19,WSW,242,1.0,6.0,53,0.00,,,0.04,0.00,VWS V14.01,2013-11-09 00:53:00,
2013-11-08 19:58:00,40.3,24.5,30.19,WSW,258,7.0,8.0,53,0.00,,,0.04,0.00,VWS V14.01,2013-11-09 00:58:00,
2013-11-08 20:00:00,39.8,25.0,30.20,WSW,246,3.0,13.0,55,0.00,,,0.04,0.00,VWS V14.01,2013-11-09 01:00:00,
2013-11-08 20:03:00,40.3,24.5,30.20,WNW,298,0.0,8.0,53,0.00,,,0.04,0.00,VWS V14.01,2013-11-09 01:03:00,
2013-11-08 20:08:00,40.2,24.5,30.20,West,264,0.0,8.0,53,0.00,,,0.04,0.00,VWS V14.01,2013-11-09 01:08:00,
2013-11-08 20:13:00,40.2,24.5,30.20,West,275,5.0,8.0,53,0.00,,,0.04,0.00,VWS V14.01,2013-11-09 01:13:00,
2013-11-08 20:15:00,39.3,25.4,30.21,WSW,248,1.0,10.0,57,0.00,,,0.04,0.00,VWS V14.01,2013-11-09 01:15:00,
2013-11-08 20:18:00,40.2,24.5,30.20,West,274,0.0,7.0,53,0.00,,,0.04,0.00,VWS V14.01,2013-11-09 01:18:00,
2013-11-08 20:23:00,40.2,24.5,30.20,West,274,4.0,7.0,53,0.00,,,0.04,0.00,VWS V14.01,2013-11-09 01:23:00,
2013-11-08 20:28:00,40.1,24.8,30.20,West,269,0.0,7.0,54,0.00,,,0.04,0.00,VWS V14.01,2013-11-09 01:28:00,
2013-11-08 20:30:00,39.5,25.5,30.21,West,271,0.0,16.0,57,0.00,,,0.04,0.00,VWS V14.01,2013-11-09 01:30:00,
2013-11-08 20:33:00,40.1,24.8,30.20,West,259,0.0,7.0,54,0.00,,,0.04,0.00,VWS V14.01,2013-11-09 01:33:00,
2013-11-08 20:38:00,40.1,24.8,30.20,WSW,252,2.0,7.0,54,0.00,,,0.04,0.00,VWS V14.01,2013-11-09 01:38:00,
2013-11-08 20:43:00,39.9,25.1,30.20,West,264,0.0,7.0,55,0.00,,,0.04,0.00,VWS V14.01,2013-11-09 01:43:00,
2013-11-08 20:45:00,39.5,26.0,30.21,West,267,0.0,5.0,58,0.00,,,0.04,0.00,VWS V14.01,2013-11-09 01:45:00,
2013-11-08 20:48:00,39.8,25.0,30.20,WSW,254,5.0,8.0,55,0.00,,,0.04,0.00,VWS V14.01,2013-11-09 01:48:00,
2013-11-08 20:53:00,39.6,24.8,30.20,WSW,253,7.0,10.0,55,0.00,,,0.04,0.00,VWS V14.01,2013-11-09 01:53:00,
2013-11-08 20:58:00,39.8,25.0,30.20,West,271,5.0,13.0,55,0.00,,,0.04,0.00,VWS V14.01,2013-11-09 01:58:00,
2013-11-08 21:00:00,39.2,26.5,30.21,West,279,0.0,4.0,60,0.00,,,0.04,0.00,VWS V14.01,2013-11-09 02:00:00,
2013-11-08 21:03:00,39.6,24.8,30.20,West,262,6.0,8.0,55,0.00,,,0.04,0.00,VWS V14.01,2013-11-09 02:03:00,
2013-11-08 21:08:00,39.5,25.1,30.20,WSW,248,6.0,9.0,56,0.00,,,0.04,0.00,VWS V14.01,2013-11-09 02:08:00,
2013-11-08 21:13:00,39.3,24.9,30.20,West,261,8.0,10.0,56,0.00,,,0.04,0.00,VWS V14.01,2013-11-09 02:13:00,
2013-11-08 21:15:00,38.8,26.9,30.21,West,277,4.0,5.0,62,0.00,,,0.04,0.00,VWS V14.01,2013-11-09 02:15:00,
2013-11-08 21:18:00,39.2,25.3,30.21,NW,305,5.0,16.0,57,0.00,,,0.04,0.00,VWS V14.01,2013-11-09 02:18:00,
2013-11-08 21:23:00,39.5,25.5,30.21,West,274,0.0,16.0,57,0.00,,,0.04,0.00,VWS V14.01,2013-11-09 02:23:00,
2013-11-08 21:28:00,39.5,25.5,30.21,West,271,0.0,16.0,57,0.00,,,0.04,0.00,VWS V14.01,2013-11-09 02:28:00,
2013-11-08 21:30:00,38.3,27.2,30.22,West,271,0.0,5.0,64,0.00,,,0.04,0.00,VWS V14.01,2013-11-09 02:30:00,
2013-11-08 21:33:00,39.5,25.5,30.21,West,267,0.0,5.0,57,0.00,,,0.04,0.00,VWS V14.01,2013-11-09 02:33:00,
2013-11-08 21:38:00,39.5,25.5,30.21,West,267,0.0,5.0,57,0.00,,,0.04,0.00,VWS V14.01,2013-11-09 02:38:00,
2013-11-08 21:43:00,39.5,26.0,30.21,West,267,0.0,5.0,58,0.00,,,0.04,0.00,VWS V14.01,2013-11-09 02:43:00,
2013-11-08 21:45:00,38.2,27.5,30.22,West,271,0.0,1.0,65,0.00,,,0.04,0.00,VWS V14.01,2013-11-09 02:45:00,
2013-11-08 21:48:00,39.5,26.4,30.21,West,267,0.0,0.0,59,0.00,,,0.04,0.00,VWS V14.01,2013-11-09 02:48:00,
2013-11-08 21:53:00,39.3,26.2,30.21,WNW,282,0.0,0.0,59,0.00,,,0.04,0.00,VWS V14.01,2013-11-09 02:53:00,
2013-11-08 21:58:00,39.2,26.5,30.21,West,278,0.0,4.0,60,0.00,,,0.04,0.00,VWS V14.01,2013-11-09 02:58:00,
2013-11-08 22:00:00,37.9,27.6,30.23,West,271,0.0,4.0,66,0.00,,,0.04,0.00,VWS V14.01,2013-11-09 03:00:00,
2013-11-08 22:03:00,39.1,26.4,30.21,West,277,0.0,5.0,60,0.00,,,0.04,0.00,VWS V14.01,2013-11-09 03:03:00,
2013-11-08 22:08:00,38.9,26.6,30.21,West,278,0.0,5.0,61,0.00,,,0.04,0.00,VWS V14.01,2013-11-09 03:08:00,
2013-11-08 22:13:00,38.8,26.9,30.21,West,277,0.0,5.0,62,0.00,,,0.04,0.00,VWS V14.01,2013-11-09 03:13:00,
2013-11-08 22:15:00,37.6,27.3,30.23,West,281,0.0,5.0,66,0.00,,,0.04,0.00,VWS V14.01,2013-11-09 03:15:00,
2013-11-08 22:18:00,38.6,26.7,30.21,West,271,1.0,5.0,62,0.00,,,0.04,0.00,VWS V14.01,2013-11-09 03:18:00,
2013-11-08 22:23:00,38.5,27.0,30.21,West,271,0.0,5.0,63,0.00,,,0.04,0.00,VWS V14.01,2013-11-09 03:23:00,
2013-11-08 22:28:00,38.3,27.2,30.21,West,271,0.0,5.0,64,0.00,,,0.04,0.00,VWS V14.01,2013-11-09 03:28:00,
2013-11-08 22:30:00,37.6,27.3,30.23,WSW,238,0.0,7.0,66,0.00,,,0.04,0.00,VWS V14.01,2013-11-09 03:30:00,
2013-11-08 22:33:00,38.3,27.2,30.22,West,271,0.0,0.0,64,0.00,,,0.04,0.00,VWS V14.01,2013-11-09 03:33:00,
2013-11-08 22:38:00,38.2,27.5,30.22,West,271,0.0,0.0,65,0.00,,,0.04,0.00,VWS V14.01,2013-11-09 03:38:00,
2013-11-08 22:43:00,38.2,27.5,30.22,West,271,0.0,0.0,65,0.00,,,0.04,0.00,VWS V14.01,2013-11-09 03:43:00,
2013-11-08 22:45:00,37.3,27.4,30.23,West,279,5.0,9.0,67,0.00,,,0.04,0.00,VWS V14.01,2013-11-09 03:45:00,
2013-11-08 22:48:00,38.2,27.5,30.22,West,271,0.0,1.0,65,0.00,,,0.04,0.00,VWS V14.01,2013-11-09 03:48:00,
2013-11-08 22:53:00,38.0,27.7,30.22,West,271,0.0,1.0,66,0.00,,,0.04,0.00,VWS V14.01,2013-11-09 03:53:00,
2013-11-08 22:58:00,37.9,27.6,30.22,West,271,0.0,4.0,66,0.00,,,0.04,0.00,VWS V14.01,2013-11-09 03:58:00,
2013-11-08 23:00:00,37.0,27.1,30.23,West,280,4.0,6.0,67,0.00,,,0.04,0.00,VWS V14.01,2013-11-09 04:00:00,
2013-11-08 23:03:00,37.9,27.6,30.23,West,267,1.0,5.0,66,0.00,,,0.04,0.00,VWS V14.01,2013-11-09 04:03:00,
2013-11-08 23:08:00,37.8,27.5,30.23,WSW,257,0.0,5.0,66,0.00,,,0.04,0.00,VWS V14.01,2013-11-09 04:08:00,
2013-11-08 23:13:00,37.6,27.3,30.23,WNW,282,2.0,5.0,66,0.00,,,0.04,0.00,VWS V14.01,2013-11-09 04:13:00,
2013-11-08 23:15:00,36.5,27.3,30.24,West,280,0.0,4.0,69,0.00,,,0.00,0.00,VWS V14.01,2013-11-09 04:15:00,
2013-11-08 23:18:00,37.5,27.2,30.23,West,273,4.0,7.0,66,0.00,,,0.04,0.00,VWS V14.01,2013-11-09 04:18:00,
2013-11-08 23:23:00,37.5,27.2,30.23,WSW,238,0.0,7.0,66,0.00,,,0.04,0.00,VWS V14.01,2013-11-09 04:23:00,
2013-11-08 23:28:00,37.6,27.3,30.23,WSW,238,0.0,7.0,66,0.00,,,0.04,0.00,VWS V14.01,2013-11-09 04:28:00,
2013-11-08 23:30:00,35.8,27.0,30.24,West,280,0.0,4.0,70,0.00,,,0.00,0.00,VWS V14.01,2013-11-09 04:30:00,
2013-11-08 23:33:00,37.6,27.6,30.23,West,259,0.0,1.0,67,0.00,,,0.04,0.00,VWS V14.01,2013-11-09 04:33:00,
2013-11-08 23:38:00,37.5,27.9,30.23,West,259,0.0,1.0,68,0.00,,,0.04,0.00,VWS V14.01,2013-11-09 04:38:00,
2013-11-08 23:43:00,37.2,27.6,30.23,WSW,254,7.0,9.0,68,0.00,,,0.04,0.00,VWS V14.01,2013-11-09 04:43:00,
2013-11-08 23:45:00,35.3,26.5,30.24,WNW,301,0.0,6.0,70,0.00,,,0.00,0.00,VWS V14.01,2013-11-09 04:45:00,
2013-11-08 23:48:00,37.3,27.4,30.23,NW,307,1.0,5.0,67,0.00,,,0.04,0.00,VWS V14.01,2013-11-09 04:48:00,
2013-11-08 23:53:00,37.3,27.0,30.23,West,281,3.0,5.0,66,0.00,,,0.04,0.00,VWS V14.01,2013-11-09 04:53:00,
2013-11-08 23:58:00,37.2,27.3,30.23,West,275,4.0,6.0,67,0.00,,,0.04,0.00,VWS V14.01,2013-11-09 04:58:00,